Location: Tierra del Sol
(32.6128°N, 116.3319°W)
Time: 14:45:58
(UTC-07:00)

OTV 5 (USA 277) - Pass Details

Date: 09 October 2017
Orbit: 404 x 417 km, 43.0° (Epoch: 07 September)

Event Time Altitude Azimuth Distance (km) Brightness Sun altitude
Rises 20:39:58 0° 276° (W) 2,349 ? -30.3°
Reaches altitude 10° 20:42:27 10° 293° (WNW) 1,487 ? -30.8°
Enters shadow 20:42:53 12° 298° (WNW) 1,361 ? -30.9°
